Tracking 28915 objects as of 30-May-2024
HD Live streaming from Space Station
objects crossing your sky now

ISTANBUL-1

Track ISTANBUL-1 now!
10-day predictions
ISTANBUL-1 is classified as:


NORAD ID: 56231
Int'l Code: 2023-084BQ
Perigee: 492.5 km
Apogee: 511.2 km
Inclination: 97.5 °
Period: 94.5 minutes
Semi major axis: 6872 km
RCS: Unknown
Launch date: June 12, 2023
Source: (TBD)
Launch site: AIR FORCE WESTERN TEST RANGE (AFWTR)

Uplink (MHz):
Downlink (MHz):
Beacon (MHz):
Mode:
Call sign:
Status: Unknown

Your satellite tracking list
Your tracking list is empty




NASA's NSSDC Master Catalog

Two Line Element Set (TLE):
1 56231U 23084BQ  24151.16648685  .00016143  00000-0  67299-3 0  9992
2 56231  97.5369 270.0391 0013580  95.4661 264.8125 15.23696105 53406
Source of the keplerian elements: AFSPC